Burke Lakefront Airport
KBKL : now visible

Airfield :











YOU CAN JOIN US ON...

 
LOGIN :

Register | Disclaimer

   EN    FR    IT 

 









Legend :    VFR   Marginal VFR   IFR   Intensive IFR   Very Intensive IFR
Visi :
Ceiling :
>= 8 km
>= 3000ft
5 to 8 km
1000 to 3000 ft
1500m to 5 km
500 to 1000 ft
800 to 1500m
200 to 500 ft
< 800m
< 200 ft
Symbols :   Thunderstorms  Fog  Heavy snow  Heavy precipitations  Wind > 20 kt






- Airport Elevation : 583 ft
- IATA code : BKL


KBKL - Burke Lakefront

CURRENT METAR :
  • 260453Z 36021G27KT 3SM -RA BR BKN009 OVC012 11/09 A2976 RMK AO2 PK WND 35029/0402 RAB0357 SLP078 P0003 T01110094 401830111

EXPIRED METARs :
  • 260353Z 35023G29KT 10SM BKN009 OVC012 12/10 A2975 RMK AO2 PK WND 35029/0353 RAE12B32E41 SLP072 P0000 T01220100
  • 260253Z 01021G27KT 5SM -RA BR BKN009 OVC014 13/11 A2973 RMK AO2 PK WND 01028/0242 RAB03 CIG 006V012 SLP066 P0001 60004 T01280111 53015

TAF N/A
KZOB FIR / North America



MET'MAP, your aeronautical weather chart ! - Copyright ORBIFLY December 2007 - Disclaimer

ORBIFLY MET'MAP TEAM :

Programming & Development : Alexandra Zaïnal
Concept & original design : Baudouin d'Aumeries
Assistance for programming : Marc-Olivier Méhu
Technical & hardware support : Manuel Goepfert

Contact : metmap@orbifly.com




SOURCES & CREDITS :

   NOAA       Earth
Advisory